Simultaneous Nadir Overpasses (SNOs) Predictions

Prediction of SNOs between GOES-15 and TERRA Satellite Orbit:

Table of predicted SNOs for the next 14.0 days since TLE Epoch: 9/8/2012
Index Date Time (GOES-15) GOES-15 Lat,Lon TERRA Lat,Lon Distance(km) Time Diff (sec)
1 09/08/2012 07:18:28 0.35,-134.78 0.96,-132.00 316.33 80
2 09/08/2012 19:37:03 -0.37,-134.82 0.10,-137.17 266.49 80
3 09/10/2012 19:27:32 -0.36,-134.89 -0.52,-134.21 78.04 80
4 09/12/2012 19:15:20 -0.36,-134.96 -1.17,-131.26 422.08 80
5 09/13/2012 07:36:43 0.37,-134.97 0.07,-136.45 167.92 80
6 09/15/2012 07:21:50 0.37,-135.03 0.67,-133.48 175.48 80
7 09/15/2012 19:43:06 -0.38,-135.05 0.38,-138.65 408.57 80
8 09/17/2012 19:30:53 -0.37,-135.11 -0.23,-135.69 65.83 80
9 09/19/2012 19:21:20
